Location: Finkenbach
(49.5340°N, 8.9188°E)
Time: 20:14:51
(UTC+00:00)

Cosmos 1378 Rocket - Pass Details

Date: 17 June 2025
Orbit: 594 x 621 km, 82.5° (Epoch: 16 July)

Event Time Altitude Azimuth Distance (km) Brightness Sun altitude
Exits shadow 23:44:47 27° 150° (SSE) 1,193 4.6 -16.9°
Maximum altitude 23:46:46 46° 93° (E) 839 4.2 -16.9°
Drops below altitude 10° 23:50:58 10° 21° (NNE) 1,985 7.4 -16.8°
Sets 23:53:15 0° 15° (NNE) 2,890 8.7 -16.8°
